GFSNE_con_mlcape_000.txt.gz
CAPE
0 20 22 11 0 0 0 0 0 0 0 0 0 0 0 0 0 0 0 120 150 81 6 0 0 0 347 540 683 794 689 980 1024 819 611 618 726 774
32 46 48 29 2 0 0 0 0 0 0 0 0 0 0 0 0 0 2 4 59 48 3 0 0 11 90 231 431 550 619 636 685 701 540 448 559 636
88 56 68 39 7 0 0 0 0 0 0 0 0 0 0 0 0 0 0 4 16 27 0 0 0 0 5 4 71 340 485 520 463 456 443 396 370 348
74 49 33 40 32 19 0 0 0 0 0 0 0 0 0 0 0 0 0 0 12 50 2 0 0 0 0 0 0 29 207 340 302 258 256 271 265 198
84 71 42 75 45 41 8 0 0 0 0 0 0 0 0 0 0 1 0 0 1 1 32 0 0 0 0 0 0 0 22 59 114 49 40 40 95 109
28 40 69 126 85 39 31 16 11 0 0 0 0 0 0 0 0 3 0 0 0 8 53 0 0 0 0 0 0 0 0 9 24 10 0 0 0 0
25 60 69 69 100 72 65 26 0 0 0 0 0 0 0 1 0 4 10 1 0 0 0 13 12 0 0 0 0 0 0 0 0 0 0 0 0 0
0 0 16 64 100 109 98 76 56 8 0 14 1 0 0 3 12 5 9 7 3 0 0 5 31 0 0 0 0 0 0 0 0 12 0 0 0 0
1 0 1 17 55 66 50 19 23 23 34 7 0 6 10 12 23 10 11 8 6 1 0 4 155 47 12 0 0 0 0 0 0 14 0 0 0 0
1 0 0 0 9 9 0 0 0 0 0 0 0 1 1 8 12 7 3 6 4 5 11 5 27 92 106 98 44 48 33 22 0 0 0 0 0 0
0 3 0 0 0 0 0 0 0 0 0 0 0 0 3 0 8 6 17 10 4 2 4 8 8 101 118 93 94 48 0 0 0 0 13 0 0 0
0 0 0 0 0 0 0 0 0 0 0 0 0 0 1 1 0 9 4 4 3 5 0 9 69 129 67 115 203 109 32 18 4 0 0 0 0 0
0 0 0 0 0 0 0 0 0 1 1 0 0 0 3 0 2 12 5 4 2 2 38 3 78 126 94 71 127 103 67 0 0 0 0 0 0 0
0 0 0 0 0 0 0 0 0 0 0 2 0 0 1 1 1 4 8 2 1 0 0 62 168 113 43 45 56 16 0 0 0 0 0 0 0 0
0 0 0 0 0 0 0 0 0 0 2 2 0 1 2 1 2 3 8 2 2 2 0 0 16 102 59 30 59 59 19 0 0 0 0 0 0 0
0 0 0 0 0 0 0 0 0 0 0 2 3 3 3 0 1 2 7 3 3 3 1 0 8 98 75 19 26 47 50 1 0 0 0 0 1 0
0 0 0 0 0 0 0 0 0 0 0 0 1 1 0 0 1 1 3 4 3 4 2 13 21 0 0 11 30 18 41 31 0 0 0 0 1 0
0 0 0 0 0 0 0 0 0 0 0 0 0 0 0 3 1 1 2 2 3 4 2 3 1 6 0 0 1 0 0 13 52 5 0 0 0 2
0 0 0 0 0 0 0 0 0 0 0 0 0 0 0 0 0 2 2 1 0 8 2 3 2 23 57 0 3 1 0 0 21 31 0 1 0 2
0 0 0 0 0 0 0 0 0 0 0 0 0 0 0 0 0 1 1 0 0 2 2 1 1 3 1 0 2 3 1 0 0 0 51 24 0 1
0 0 0 0 0 0 0 0 0 0 0 0 0 0 0 0 0 0 0 0 0 0 15 11 1 0 1 0 4 3 3 0 2 0 2 1 2 7
0 0 0 0 0 0 0 0 0 0 0 0 0 0 0 0 0 0 0 0 0 0 0 24 34 4 0 0 1 1 4 2 2 0 4 2 0 4
0 0 0 0 0 0 0 0 0 0 0 0 0 0 0 0 0 0 0 0 0 0 0 0 1 0 18 16 1 3 2 3 3 3 1 0 0 0

GFSNE_con_mlcape_006.txt.gz
CAPE
0 0 0 0 3 0 0 0 0 0 0 0 0 0 0 0 0 0 0 0 0 0 0 0 0 0 0 0 10 104 280 585 826 1080 1108 1292 1339 1222
0 0 0 34 45 6 0 0 0 0 0 0 0 0 0 0 0 0 0 0 0 0 0 0 0 0 0 0 0 0 14 22 230 616 881 867 969 983
0 18 19 33 37 22 0 0 0 0 0 0 0 0 0 0 0 0 0 0 0 0 0 0 0 0 0 0 1 0 0 0 0 3 230 673 639 799
0 30 42 45 27 33 25 14 0 0 0 0 0 0 0 0 0 0 0 0 0 0 0 0 0 0 0 0 0 0 0 0 0 0 0 250 483 501
7 29 24 37 0 0 0 0 13 22 2 0 0 0 0 0 0 0 0 0 0 0 0 0 0 0 0 0 0 0 0 0 0 0 0 25 235 266
15 25 5 0 0 0 0 0 0 6 21 6 0 0 0 0 0 0 0 0 0 0 0 0 0 0 0 0 0 0 0 0 0 0 0 0 0 71
17 6 0 0 0 0 0 0 0 0 17 0 0 0 0 0 0 0 0 0 0 0 0 0 0 0 0 0 0 0 0 0 0 0 0 0 0 0
0 0 0 0 0 0 3 9 10 0 14 2 0 0 0 0 0 0 0 0 2 0 0 0 5 4 3 0 0 8 0 0 0 0 0 0 0 0
0 0 0 0 0 0 0 1 21 35 40 3 0 0 0 0 0 2 1 1 3 0 2 3 1 2 6 1 0 0 0 0 0 0 0 0 0 0
0 0 0 0 0 0 0 1 0 0 0 0 0 0 0 1 4 3 2 3 3 5 9 5 6 3 5 3 0 0 0 0 0 0 0 0 0 0
0 0 0 0 0 0 0 0 0 0 0 0 0 0 0 0 0 3 0 3 9 6 5 6 3 3 5 3 3 0 0 0 0 0 0 0 0 0
0 0 0 0 0 0 0 0 0 0 0 0 0 0 1 0 0 0 2 5 6 3 2 4 4 3 6 0 0 0 0 0 0 0 0 0 0 0
0 0 0 0 0 0 0 0 0 0 0 0 0 0 0 1 0 0 0 2 2 3 2 3 3 10 5 3 19 0 0 25 0 0 0 0 0 0
0 0 0 0 0 0 0 0 0 0 0 0 0 0 0 0 0 0 0 2 2 3 3 4 3 5 4 1 5 51 64 2 0 0 0 0 0 0
0 0 0 0 0 0 0 0 0 0 0 0 0 0 0 0 0 0 0 2 1 1 8 3 4 6 3 7 186 148 11 0 2 0 0 0 0 0
0 0 0 0 0 0 0 0 0 0 0 0 0 0 0 0 0 0 3 2 2 0 1 2 1 2 0 0 50 213 52 46 1 1 2 1 0 0
0 0 0 0 0 0 0 0 0 0 0 0 0 0 0 0 0 0 0 3 1 1 3 1 2 2 1 0 27 219 75 2 0 1 3 0 1 5
0 0 0 0 0 0 0 0 0 0 0 0 0 0 0 0 0 0 0 1 0 1 6 5 2 0 2 1 1 4 95 52 3 1 3 1 0 1
0 0 0 0 0 0 0 0 0 0 0 0 0 0 0 0 0 0 0 0 0 1 2 5 3 3 3 2 2 1 0 39 35 0 2 3 0 0
0 0 0 0 0 0 0 0 0 0 0 0 0 0 0 0 0 0 0 0 0 1 0 1 2 2 1 1 4 0 0 1 17 3 7 16 21 0
0 0 0 0 0 0 0 0 0 0 0 0 0 0 0 0 0 0 0 0 0 0 0 0 1 1 1 0 0 3 5 2 3 6 17 63 66 30
0 0 0 0 0 0 0 0 0 0 0 0 0 0 0 0 0 0 0 0 0 0 0 0 0 0 0 0 1 0 2 2 2 1 5 3 9 17
0 0 0 0 0 0 0 0 0 0 0 0 0 0 0 0 0 0 0 0 0 0 0 0 0 0 0 0 1 0 0 3 2 3 0 0 1 4

GFSNE_con_mlcape_009.txt.gz
CAPE
71 145 72 34 57 95 91 41 9 4 2 0 0 0 0 0 0 0 0 0 0 0 0 0 0 0 0 0 0 0 0 3 146 704 917 879 1146 1503
12 109 108 65 98 127 97 68 26 17 1 1 0 0 0 0 0 0 0 0 0 0 0 0 0 0 0 0 0 0 0 0 0 31 277 702 789 1013
110 34 96 87 70 96 98 81 77 56 55 0 0 4 0 0 0 0 0 0 0 0 0 0 0 0 0 0 0 0 0 0 0 0 5 85 436 753
36 107 105 161 185 136 89 87 62 69 62 36 0 0 6 0 2 5 0 0 0 0 0 0 0 0 0 0 0 0 0 0 0 0 0 0 1 154
31 51 98 225 94 58 88 61 42 51 56 79 24 0 0 5 2 8 2 0 0 0 0 0 0 0 0 0 0 0 0 0 0 0 0 0 0 0
31 98 155 17 26 37 48 69 63 49 40 52 25 7 6 6 11 14 7 6 2 0 0 0 0 0 0 0 0 0 0 0 0 0 0 0 0 0
33 146 153 55 13 3 2 5 50 59 28 27 28 14 10 14 14 15 10 6 0 2 0 0 0 0 0 0 0 0 0 0 0 0 0 0 0 0
70 143 98 4 0 0 0 0 0 9 50 38 46 24 9 11 13 10 0 0 0 0 5 4 2 0 0 1 1 0 0 0 0 0 0 0 0 0
142 129 60 32 0 0 0 0 5 0 11 60 47 11 7 1 2 2 0 3 3 6 8 1 5 1 0 0 2 1 0 0 0 0 0 0 0 0
167 123 78 79 71 0 0 0 20 15 6 3 0 0 0 0 0 5 2 2 2 2 25 17 2 0 0 5 10 4 0 0 0 0 0 0 0 0
198 79 19 4 0 0 0 0 0 0 0 0 0 0 0 0 0 4 2 5 3 7 0 0 0 3 6 6 9 6 0 0 0 0 0 0 0 0
76 9 0 0 0 0 0 0 0 8 0 0 0 0 0 0 0 2 2 4 4 1 0 0 2 5 6 3 1 2 4 0 0 0 0 0 0 2
39 8 0 0 0 0 0 0 0 0 0 0 0 0 0 0 0 0 0 3 4 2 0 2 4 5 4 2 4 0 7 13 2 0 0 0 0 0
87 21 0 0 0 0 0 0 0 0 0 0 0 0 0 0 0 0 0 0 0 3 1 2 3 2 4 1 4 1 0 12 25 6 1 0 1 0
1 0 0 0 0 0 0 0 0 0 0 0 0 0 0 0 0 0 0 0 0 0 0 1 11 2 3 4 2 4 5 21 39 2 1 0 0 2
0 0 0 0 0 0 0 0 0 0 0 0 0 0 0 0 0 0 0 0 2 0 1 1 7 3 3 1 2 0 5 44 2 2 0 3 4 2
0 0 0 0 0 0 0 0 0 0 0 0 0 0 0 0 0 0 0 0 3 3 1 0 2 2 1 1 1 2 217 151 4 2 2 0 2 2
0 0 0 0 0 0 0 0 0 0 0 0 0 0 0 0 0 0 0 0 2 2 1 2 2 2 4 1 0 0 0 333 61 3 3 1 0 5
0 0 0 0 0 0 0 0 0 0 0 0 0 0 0 0 0 0 0 0 0 0 1 2 2 2 2 3 4 0 3 2 11 1 0 0 1 1
0 0 0 0 0 0 0 0 0 0 0 0 0 0 0 0 0 0 0 0 0 0 1 2 1 1 1 2 4 2 0 2 2 25 18 1 0 1
0 0 0 0 0 0 0 0 0 0 0 0 0 0 0 0 0 0 0 0 0 0 1 2 2 3 1 0 2 3 1 1 2 3 1 14 10 1
0 0 0 0 0 0 0 0 0 0 0 0 0 0 0 0 0 0 0 0 0 0 0 0 0 0 1 3 2 3 2 0 3 1 3 4 3 39
0 0 0 0 0 0 0 0 0 0 0 0 0 0 0 0 0 0 0 0 0 0 0 0 0 0 1 2 3 3 4 1 2 3 1 0 1 0

GFSNE_con_mlcape_015.txt.gz
CAPE
10 6 0 1 8 17 30 44 32 12 12 68 83 59 35 27 25 0 0 2 0 0 0 0 0 0 0 0 0 0 0 0 0 0 0 0 0 95
3 0 0 0 4 21 26 39 45 35 29 24 32 43 36 25 57 49 25 6 0 0 0 0 0 0 0 0 0 0 0 0 0 0 0 0 0 0
27 0 0 2 3 9 17 20 10 10 14 5 6 21 40 33 41 65 74 61 44 19 8 0 0 0 0 0 0 0 0 0 0 0 0 0 0 0
1 0 16 11 154 210 21 39 17 10 4 1 0 0 6 9 40 55 30 31 35 15 0 0 0 0 0 0 0 0 0 0 0 0 0 0 0 0
10 26 57 73 142 100 159 56 16 40 57 25 24 14 4 20 23 21 72 57 62 26 20 9 6 0 0 0 0 0 0 0 0 0 0 0 0 0
78 112 110 139 245 243 218 200 160 73 54 40 44 36 25 55 83 38 23 23 26 36 14 8 6 4 0 0 0 0 0 0 0 0 0 0 0 0
40 135 226 228 176 281 242 163 138 64 35 27 26 23 38 61 55 52 27 16 19 31 9 10 1 0 0 4 1 0 0 0 0 0 0 0 0 0
131 229 373 329 190 134 118 64 7 3 52 64 0 0 23 15 38 16 26 6 3 26 0 0 0 1 24 58 28 8 0 0 0 0 0 0 0 0
153 423 483 325 228 299 243 60 19 9 0 0 13 67 64 76 56 12 2 0 0 0 0 0 0 6 42 135 29 1 0 0 0 0 0 0 0 0
136 356 418 610 444 188 152 80 164 242 102 34 55 146 64 14 22 4 0 0 0 3 13 21 2 11 23 64 6 0 0 0 0 0 0 0 0 0
112 374 717 481 165 48 35 28 128 136 122 0 7 0 0 0 0 0 0 8 10 16 19 14 40 38 24 5 0 0 0 0 0 0 0 0 0 0
89 134 210 87 54 40 16 34 74 96 37 56 54 4 2 2 1 1 20 30 28 23 10 10 0 2 5 3 0 0 0 3 2 0 0 0 0 0
39 304 194 74 11 0 0 0 0 18 76 0 0 1 45 34 10 43 62 28 12 4 0 0 0 1 52 19 3 0 5 1 3 2 0 0 0 0
68 272 151 45 0 0 0 0 0 0 0 0 3 15 15 1 0 1 0 0 0 0 0 0 1 26 13 2 4 0 4 0 1 2 0 0 0 0
137 41 50 0 0 0 0 0 0 0 0 7 20 1 0 0 0 0 1 2 1 0 35 11 24 8 30 13 3 2 12 0 2 6 4 3 2 0
1 7 0 0 0 0 0 0 0 0 5 1 0 0 0 0 0 0 0 0 0 8 10 1 21 14 46 2 2 2 3 4 2 3 5 10 41 0
158 162 15 23 38 18 9 10 2 13 10 1 0 0 0 0 0 0 0 0 0 12 13 13 0 29 21 4 1 0 18 2 3 4 5 187 28 0
42 137 91 57 39 29 53 49 21 11 3 0 0 0 0 0 0 0 0 0 0 4 10 22 10 4 0 0 1 9 7 4 3 4 5 41 36 67
0 0 0 19 20 22 19 7 7 1 0 0 0 0 0 0 0 0 0 0 0 1 8 15 1 0 0 1 0 3 5 4 3 3 6 6 12 11
0 0 3 11 12 17 1 0 0 0 0 0 0 0 0 0 0 0 0 0 0 0 11 14 3 0 0 4 4 2 4 2 2 3 5 5 0 34
7 0 0 0 0 0 0 0 0 0 0 0 0 0 0 0 0 0 0 0 0 0 0 24 1 0 0 1 1 1 3 2 0 2 2 4 5 62
0 0 0 0 0 0 0 0 0 0 0 0 0 0 0 0 0 0 0 0 0 0 0 14 8 0 0 2 2 2 1 0 0 1 0 1 2 2
0 0 0 0 0 0 0 0 0 0 0 0 0 0 0 0 0 0 0 0 0 0 0 0 20 0 0 0 1 2 0 1 1 0 1 0 1 1

GFSNE_con_mlcape_021.txt.gz
CAPE
5 8 0 0 0 0 0 0 0 0 0 0 6 15 14 13 0 0 0 0 0 0 0 0 0 0 0 0 0 0 0 0 0 0 0 0 0 0
66 28 18 4 12 0 0 0 0 0 0 0 0 0 0 0 5 1 0 4 0 0 0 0 0 0 0 0 0 0 0 0 0 0 0 0 0 0
178 38 69 30 29 1 1 0 0 0 0 0 0 0 3 0 0 0 0 0 0 0 0 0 3 6 5 6 5 0 0 0 0 0 0 0 0 0
25 72 29 72 17 0 0 0 3 1 0 0 0 4 9 0 0 0 0 10 0 13 3 1 8 0 0 0 0 0 0 0 0 0 0 0 0 0
166 99 3 3 7 16 61 35 124 64 27 5 0 0 2 0 0 1 0 0 5 6 2 0 0 1 0 0 0 0 0 0 0 0 0 0 0 0
139 268 129 32 4 91 130 185 70 44 46 47 41 14 3 6 2 0 0 0 0 5 5 0 0 0 0 0 0 0 0 0 0 0 0 0 0 0
83 155 60 26 47 157 244 143 124 63 26 25 28 0 0 0 2 0 0 0 0 0 0 0 0 0 0 0 0 0 0 0 0 0 0 0 0 0
14 108 114 98 108 161 218 36 37 18 10 25 11 0 0 0 8 0 0 0 0 0 0 0 0 0 0 0 0 0 0 0 0 0 0 0 0 0
75 138 320 282 95 10 33 48 38 5 6 25 6 0 0 0 46 36 0 0 0 0 0 0 0 0 0 0 0 0 0 8 3 0 0 0 0 0
256 494 345 92 8 21 49 37 30 26 29 50 18 0 13 53 63 46 19 10 0 0 0 0 0 0 0 0 0 0 0 0 0 0 0 0 0 0
201 223 2 6 0 75 53 12 28 28 82 45 42 91 73 38 89 39 12 11 1 0 0 0 0 0 0 0 0 0 0 0 0 0 0 0 0 0
28 8 0 0 0 51 35 9 44 78 74 51 26 31 1 0 0 5 12 9 7 0 0 0 0 0 0 0 0 0 0 0 0 0 0 0 0 0
0 0 1 0 11 60 49 43 86 53 12 1 0 0 0 0 0 11 1 0 0 0 0 0 0 0 0 0 0 0 0 0 0 0 0 0 0 0
20 26 59 17 29 72 51 58 9 0 0 0 0 0 0 0 0 0 0 0 0 0 0 0 0 0 0 9 2 0 0 0 0 0 0 1 19 9
23 2 0 12 17 18 17 20 1 0 0 0 0 0 0 0 0 0 0 0 0 0 0 0 0 0 38 20 9 0 0 0 0 0 5 22 4 7
0 0 0 0 0 0 0 0 0 0 0 0 9 7 0 0 0 0 0 0 0 0 0 0 0 37 21 8 3 0 0 0 0 1 9 12 3 4
0 0 0 0 0 0 0 0 0 0 1 4 19 9 0 0 0 0 0 0 0 0 0 0 0 2 22 16 0 0 0 0 0 9 5 5 3 6
0 0 0 0 0 0 0 0 13 18 19 17 6 0 0 0 0 0 0 0 0 0 0 0 0 0 2 0 0 0 1 0 3 5 7 10 2 1
0 0 81 46 10 7 7 22 31 29 36 2 0 0 0 0 0 0 0 0 0 0 0 0 0 0 0 0 0 5 5 3 3 4 6 9 4 2
0 0 0 0 0 0 0 0 0 0 0 0 0 0 0 0 0 0 0 0 0 0 0 0 0 0 0 1 0 0 6 1 0 5 7 3 2 2
0 0 0 0 0 0 0 0 0 0 0 0 0 0 0 0 0 0 0 0 0 0 0 0 0 2 0 0 0 0 0 0 0 6 8 3 3 2
0 0 0 0 0 0 0 0 0 0 0 0 0 0 0 0 0 0 0 0 0 0 0 0 0 0 0 0 0 0 0 0 0 6 7 5 3 3
0 0 0 0 0 0 0 0 0 0 0 0 0 0 0 0 0 0 0 0 0 0 0 0 0 0 0 0 0 0 0 0 0 3 3 1 0 3

GFSNE_con_mlcape_024.txt.gz
CAPE
0 10 4 1 0 0 0 0 0 0 0 0 0 0 0 0 0 0 0 0 0 0 0 0 0 0 0 0 0 0 0 0 0 0 0 0 0 0
4 8 2 0 0 0 0 0 0 0 0 0 0 0 0 0 0 0 0 0 0 0 3 11 4 0 5 17 12 4 3 0 0 0 0 0 0 0
72 40 8 1 3 2 2 0 1 2 1 13 0 0 0 0 0 0 0 0 0 0 3 17 10 13 18 10 0 0 0 0 0 0 0 0 0 0
0 97 88 14 25 19 4 13 3 0 0 3 19 3 8 7 0 4 2 0 0 3 2 13 5 0 0 0 0 0 0 0 0 0 0 0 0 0
32 17 17 24 17 26 12 9 42 86 43 35 50 20 18 27 9 0 0 0 0 0 0 6 0 0 0 0 0 0 0 0 0 0 0 0 0 0
1 80 97 31 10 8 8 43 78 46 37 35 22 23 10 14 10 2 0 0 0 0 0 0 0 0 0 0 0 0 0 0 0 0 0 0 0 0
80 73 132 129 162 57 13 37 27 0 16 18 7 4 0 6 2 1 1 0 0 0 0 0 0 0 0 0 0 0 0 0 0 0 0 0 0 0
108 38 53 65 120 59 21 74 10 10 46 19 4 1 0 1 0 0 0 0 0 0 0 0 0 0 0 0 0 0 0 0 0 0 0 0 0 0
197 23 0 51 135 108 85 13 4 39 49 9 0 0 12 11 0 0 0 0 0 0 0 0 0 0 0 0 0 0 0 0 0 0 0 0 0 0
244 149 0 20 212 141 18 3 15 34 45 24 4 1 11 5 0 26 16 0 0 0 0 1 0 0 0 0 0 0 0 0 0 0 0 0 0 0
320 284 81 97 95 50 8 0 9 45 67 67 61 54 34 28 7 0 5 0 0 0 0 0 0 0 0 0 0 0 0 0 0 0 0 0 0 0
193 144 92 150 47 0 0 1 25 20 14 35 20 0 1 0 0 0 0 0 0 0 0 0 0 0 0 0 0 0 0 0 0 0 0 0 0 0
56 5 6 3 0 0 0 15 32 42 65 29 1 0 0 0 0 0 0 0 0 0 0 0 0 0 0 0 0 0 0 0 0 0 0 0 0 0
0 0 0 0 0 2 8 11 4 9 6 0 0 0 0 0 0 0 0 0 0 0 0 0 0 0 0 0 0 0 0 0 0 0 0 0 0 0
10 1 0 0 0 0 6 1 2 0 0 0 0 0 0 0 0 0 0 0 0 0 0 0 0 0 0 0 0 0 0 0 0 0 0 0 0 0
1 0 0 0 0 0 0 0 0 0 0 0 0 0 0 0 0 0 0 0 0 0 0 0 0 0 0 0 0 0 0 0 0 0 0 0 3 3
0 0 0 0 0 0 0 0 0 0 0 0 0 0 0 0 0 0 0 0 0 0 0 0 0 0 0 0 0 0 0 0 0 0 1 1 2 6
0 0 0 0 0 0 0 0 0 0 0 0 0 0 0 0 0 0 0 0 0 0 0 0 0 0 0 0 0 0 0 0 0 1 3 3 4 1
0 0 0 0 0 0 0 0 0 0 0 0 0 0 0 0 0 0 0 0 0 0 0 0 0 0 0 0 0 0 0 0 0 0 1 6 10 3
0 0 0 0 0 0 0 0 0 0 0 0 0 0 0 0 0 0 0 0 0 0 0 0 0 0 0 0 0 0 0 0 0 1 3 8 7 6
0 0 0 0 0 0 0 0 0 0 0 0 0 0 0 0 0 0 0 0 0 0 0 0 0 0 0 0 0 0 0 0 0 0 5 7 5 4
0 0 0 0 0 0 0 0 0 0 0 0 0 0 0 0 0 0 0 0 0 0 0 0 0 0 0 0 0 0 0 0 0 0 2 10 6 5
0 0 0 0 0 0 0 0 0 0 0 0 0 0 0 0 0 0 0 0 0 0 0 0 0 0 0 0 0 0 0 0 0 0 0 5 6 7

GFSNE_con_mlcape_030.txt.gz
CAPE
0 0 0 0 0 0 0 0 0 0 0 0 0 0 0 0 0 0 3 0 0 0 0 0 0 0 0 1 1 0 0 0 0 0 0 0 0 0
0 0 0 0 0 0 0 0 0 0 0 0 0 0 0 0 0 0 0 0 1 11 0 0 0 0 0 4 13 9 0 0 0 0 0 0 0 0
0 0 0 0 0 0 0 0 0 0 0 0 0 1 0 4 0 0 0 0 0 0 0 0 0 0 0 0 0 0 0 0 0 0 0 0 0 0
0 0 0 0 0 0 0 0 0 0 0 0 0 0 4 2 0 0 0 0 0 0 0 0 0 0 0 0 0 0 0 0 0 0 0 0 0 0
0 0 0 0 0 0 0 0 0 0 0 0 0 2 6 0 0 0 0 0 1 0 0 0 0 0 0 0 0 0 0 0 0 0 0 0 0 0
28 0 0 0 0 1 0 0 0 0 0 0 2 0 0 7 0 0 0 0 0 0 0 0 0 0 0 0 0 0 0 0 0 0 0 0 0 0
197 61 10 5 0 0 0 0 0 0 0 0 2 0 1 0 1 0 0 0 0 0 0 0 0 0 0 0 0 0 0 0 0 0 0 0 0 0
408 226 62 73 28 0 0 1 0 0 1 0 0 0 0 0 0 0 0 2 0 0 0 5 0 0 0 0 0 0 0 0 0 0 0 0 0 0
501 393 224 101 83 64 2 0 0 1 9 11 19 0 1 17 0 0 0 0 0 2 0 0 0 0 0 0 0 0 0 0 0 0 0 0 0 0
510 466 485 436 234 160 103 6 0 5 15 33 5 4 26 0 0 0 0 0 0 0 0 0 0 0 0 0 0 0 0 0 0 0 0 0 0 0
554 452 514 526 341 136 138 23 0 1 5 2 0 0 8 0 1 0 0 0 0 0 0 0 0 0 0 0 0 0 0 0 0 0 0 0 0 0
694 573 447 546 220 90 160 1 0 3 12 9 1 17 2 0 0 0 0 0 0 0 0 0 0 0 0 0 0 0 0 0 0 0 0 0 0 0
1006 869 527 465 278 102 73 1 0 10 1 0 3 0 0 0 0 0 0 0 0 0 0 0 0 0 0 0 0 0 0 0 0 0 0 0 0 0
1158 1020 613 375 156 12 0 6 0 0 0 0 0 0 0 0 0 0 0 0 0 0 0 0 0 0 0 0 0 0 0 0 0 0 0 0 0 0
891 926 489 68 2 0 0 0 0 0 0 0 2 0 0 0 0 0 0 0 0 0 0 0 0 0 0 0 0 0 0 0 0 0 0 0 0 0
201 52 1 0 0 0 0 0 0 0 0 1 0 0 0 0 0 0 0 0 0 0 0 0 0 0 0 0 0 0 0 0 0 0 0 0 0 0
0 0 0 0 0 0 0 0 0 0 0 0 0 0 0 0 0 0 0 0 0 0 0 0 0 0 0 0 0 0 0 0 0 0 0 0 0 0
0 0 0 0 0 0 0 0 0 0 0 0 0 0 0 0 0 0 0 0 0 0 0 0 0 0 0 0 0 0 0 0 0 0 0 0 0 0
0 0 0 0 0 0 0 0 0 0 0 0 0 0 0 0 0 0 0 0 0 0 0 0 0 0 0 0 0 0 0 0 0 0 0 0 1 0
0 0 0 0 0 0 0 0 0 0 0 0 0 0 0 0 0 0 0 0 0 0 0 0 0 0 0 0 0 0 0 0 0 0 0 0 1 4
1 2 0 0 0 0 0 0 0 0 0 0 0 0 0 0 0 0 0 0 0 0 0 0 0 0 0 0 0 0 0 0 0 0 0 0 1 3
0 0 0 0 0 0 0 0 0 0 0 0 0 0 0 0 0 0 0 0 0 0 0 0 0 0 0 0 0 0 0 0 0 0 0 0 3 4
0 0 0 0 0 0 0 0 0 0 0 0 0 0 0 0 0 0 0 0 0 0 0 0 0 0 0 0 0 0 0 0 0 0 0 0 0 0

GFSNE_con_mlcape_033.txt.gz
CAPE
46 28 35 31 0 0 0 0 0 0 0 0 0 0 5 15 2 6 44 61 0 0 0 0 0 0 0 0 0 0 0 0 0 0 0 0 0 0
73 69 29 33 18 0 0 0 0 0 0 0 0 0 0 0 6 41 55 0 0 0 0 0 0 0 0 0 0 0 0 0 0 0 0 0 0 0
107 77 53 85 21 0 0 0 0 0 0 0 0 0 0 6 8 37 26 66 59 0 0 0 0 0 0 0 0 0 0 0 0 0 0 0 0 0
279 97 40 28 9 21 0 0 0 0 0 21 15 11 0 26 16 36 16 3 31 8 0 0 0 0 0 0 0 0 0 0 0 0 0 0 0 0
425 179 74 53 0 0 0 0 0 0 0 0 0 18 18 20 29 16 11 13 7 0 0 0 0 0 0 0 0 0 0 0 0 0 0 0 0 0
630 397 224 153 21 22 22 12 30 7 19 5 0 11 42 69 27 8 3 6 17 0 0 0 0 0 0 0 0 0 0 0 0 0 0 0 0 0
784 545 390 294 147 100 64 185 134 50 48 14 18 18 6 15 0 0 0 7 9 17 2 36 24 12 0 0 0 0 0 0 0 0 0 0 0 0
892 782 632 273 81 28 0 79 173 45 94 49 8 15 27 51 0 31 15 0 29 85 79 20 126 71 51 19 0 0 0 0 0 0 0 0 0 0
1055 982 905 644 226 219 20 0 0 6 80 251 121 82 76 68 25 27 28 72 99 105 69 37 137 121 3 0 0 0 0 0 0 0 0 0 0 0
1160 1105 1084 853 651 505 501 252 119 123 21 26 288 269 72 115 58 53 73 128 128 101 139 4 0 2 0 0 0 0 0 0 0 0 0 0 0 0
1238 1159 1180 1011 874 411 482 571 438 429 136 11 41 31 0 0 22 63 55 57 8 5 3 0 0 0 0 0 0 0 0 0 0 0 0 0 0 0
1364 1229 841 1171 847 332 463 682 700 510 152 13 1 0 0 1 0 40 39 0 1 0 3 0 0 0 0 0 0 0 0 0 0 0 0 0 0 0
1328 1266 1235 592 431 298 289 787 794 471 142 139 41 7 1 1 3 3 15 0 0 0 0 0 0 0 0 0 0 0 0 0 0 0 0 0 0 0
1243 1232 961 531 369 140 85 455 240 117 82 0 0 0 0 0 0 0 0 0 0 0 0 0 0 0 0 0 0 0 0 0 0 0 0 0 0 0
1196 816 674 359 168 19 29 73 10 70 5 0 0 0 0 0 0 0 0 0 0 0 0 0 0 0 0 0 0 0 0 0 0 0 3 0 0 0
332 238 142 69 0 12 0 0 102 91 8 0 0 0 0 0 0 0 0 0 0 0 0 0 0 0 0 0 0 0 0 0 0 2 0 0 0 0
1 2 20 6 40 0 0 0 0 0 0 0 0 0 0 0 0 0 0 0 0 0 0 0 0 0 0 0 0 0 0 0 0 0 0 0 0 0
0 0 5 19 3 0 0 1 0 0 0 0 0 0 0 0 0 0 0 0 0 0 0 0 0 0 0 0 0 0 0 0 0 0 0 0 0 0
0 0 0 0 0 0 0 0 0 0 0 0 0 0 0 0 0 0 0 0 0 0 0 0 0 0 0 0 0 0 0 0 0 0 0 0 0 0
0 0 0 0 1 0 0 0 0 0 0 0 0 0 0 0 0 0 0 0 0 0 0 0 0 0 0 0 0 0 0 0 0 0 0 0 0 0
1 0 0 0 0 0 0 0 0 0 0 0 0 0 0 0 0 0 0 0 0 0 0 0 0 0 0 0 0 0 0 0 0 0 0 0 0 0
1 5 0 3 4 0 0 0 0 0 0 0 0 0 0 0 0 0 0 0 0 0 0 0 0 0 0 0 0 0 0 0 0 0 0 0 1 3
3 15 10 1 0 0 0 0 0 0 0 0 0 0 0 0 0 0 0 0 0 0 0 0 0 0 0 0 0 0 0 0 0 0 0 0 0 0

GFSNE_con_mlcape_036.txt.gz
CAPE
666 260 19 8 1 0 0 0 0 0 0 0 0 0 0 1 1 37 95 57 26 1 0 0 0 0 0 0 0 0 0 0 0 0 0 0 0 0
339 99 99 0 24 10 0 0 0 0 0 0 0 0 0 0 13 29 122 61 25 0 0 0 0 0 0 0 0 0 0 0 0 0 0 0 0 0
458 147 370 135 17 17 20 1 0 0 0 0 0 36 55 30 0 7 31 31 29 0 0 0 0 0 0 0 0 0 0 0 0 0 0 0 0 0
972 525 347 319 259 71 35 21 2 1 0 0 1 2 98 54 146 200 17 17 20 8 0 0 0 0 0 0 0 0 0 0 0 0 0 0 0 0
1237 970 631 337 327 29 58 7 44 33 49 0 0 34 0 41 127 180 122 32 14 2 0 0 0 0 0 0 0 0 0 0 0 0 0 0 0 0
1629 1259 908 438 388 335 119 188 121 42 56 55 3 0 29 15 38 2 23 118 19 29 3 0 0 0 0 0 0 0 0 0 0 0 0 0 0 0
1828 1560 1184 950 481 477 224 293 310 292 50 134 114 24 21 16 25 14 10 18 66 100 42 55 23 40 22 0 0 0 0 0 0 0 0 0 0 0
2174 1806 1558 1045 708 412 270 286 445 534 376 90 129 85 117 52 14 19 2 41 26 81 176 77 42 23 88 80 2 0 0 0 0 0 0 0 0 0
2412 2051 1794 1506 1066 974 344 126 151 380 360 485 369 210 180 229 148 141 101 51 48 108 174 69 30 23 13 7 0 0 0 0 0 0 0 0 0 0
2393 2260 2156 1833 1638 1284 1126 556 217 377 282 204 405 516 545 443 397 224 119 102 120 140 101 53 19 3 1 0 0 0 0 0 0 0 0 0 0 0
2464 2345 2359 2232 2044 1132 1246 1243 705 411 265 140 182 163 316 177 305 108 31 31 39 42 55 23 5 1 0 0 0 0 0 0 0 0 0 0 0 0
2375 2553 1917 2154 1915 1146 1071 1459 1264 1000 823 447 190 57 41 6 0 8 29 29 32 16 28 0 0 0 0 0 0 0 0 0 0 0 0 0 0 0
1758 2016 2156 1415 1210 1010 794 1056 1058 1184 1042 812 346 221 176 107 24 0 38 39 8 1 9 0 0 0 0 0 0 0 0 0 0 0 0 0 0 0
2067 1911 2017 1376 877 613 528 644 701 773 781 448 286 142 88 68 51 16 73 22 0 0 0 0 0 0 0 0 0 0 0 0 0 0 0 0 0 0
2125 2260 1784 984 682 273 242 243 343 451 345 215 160 142 40 44 35 3 1 0 0 0 0 0 0 0 0 0 0 0 0 0 0 0 0 0 0 0
974 1002 672 421 291 105 0 30 141 168 153 157 100 59 47 31 3 0 0 0 0 0 1 0 0 0 0 0 0 0 0 0 0 0 0 0 0 0
20 161 103 39 20 4 2 16 97 183 69 94 84 37 15 3 0 0 0 0 0 0 5 3 0 0 0 0 0 0 0 0 0 0 0 0 0 0
24 71 11 5 4 5 0 0 12 111 117 114 56 25 8 2 0 1 0 0 5 0 1 0 0 0 0 0 0 0 0 0 0 0 0 0 0 0
23 3 0 0 0 0 0 0 0 50 82 54 22 3 11 5 0 4 1 2 1 0 0 0 0 0 0 0 0 0 0 0 0 0 0 0 0 0
4 0 0 0 0 0 2 2 1 27 71 26 4 9 6 0 6 0 7 2 0 0 0 0 0 0 0 0 0 0 0 0 0 0 0 0 0 0
26 26 2 0 2 4 1 2 2 10 26 6 7 2 0 8 5 0 0 0 0 0 0 0 0 0 0 0 0 0 0 0 0 0 0 0 0 0
32 28 25 22 40 7 1 4 18 0 0 2 0 1 12 0 0 0 0 0 0 0 0 0 0 0 0 0 0 0 0 0 0 0 0 0 0 0
77 72 63 112 38 32 49 20 6 0 0 0 5 9 0 0 0 0 0 0 0 0 0 0 0 0 0 0 0 0 0 0 0 0 0 0 0 0

GFSNE_con_mlcape_042.txt.gz
CAPE
1632 1430 138 319 69 0 0 0 0 1 18 23 0 0 23 0 0 0 0 0 0 0 0 0 0 0 0 0 0 0 0 0 0 0 0 0 0 0
1805 1651 780 83 88 81 25 3 0 0 0 60 10 0 0 13 0 13 11 0 0 0 0 0 0 0 0 0 0 0 0 0 0 0 0 0 0 0
1884 1522 1365 277 19 332 63 48 31 13 0 0 341 149 32 0 0 6 3 15 7 2 0 0 0 0 0 0 0 0 0 0 0 0 0 0 0 0
1757 1591 1614 1020 162 298 809 113 66 163 98 61 255 262 191 111 49 187 44 48 177 3 0 0 0 0 0 0 0 0 0 0 0 0 0 0 0 0
2486 1810 1285 1308 784 91 367 494 365 387 495 164 231 501 478 618 229 177 318 163 42 12 0 0 0 0 0 0 0 0 0 0 0 0 0 0 0 0
2868 2554 1944 1391 988 766 150 90 403 576 268 336 339 137 276 432 448 226 275 396 223 77 1 0 0 0 0 0 0 0 0 0 0 0 0 0 0 0
2301 2746 2525 2063 1417 1094 1091 649 256 237 802 334 347 405 255 326 189 143 129 117 188 258 45 12 34 0 0 0 2 5 3 0 0 0 0 0 0 0
2761 2575 2721 2421 1977 1427 1145 1125 745 216 91 384 452 312 331 310 420 227 98 95 73 43 1 18 64 97 86 65 43 13 0 0 0 0 0 0 0 0
3013 2891 2730 2755 2300 1843 1282 1072 754 605 372 156 126 300 488 573 582 400 290 158 64 132 51 27 1 38 25 0 0 0 0 0 0 0 0 0 0 0
3011 3083 2962 2695 2705 2233 1714 1168 939 513 406 579 494 341 434 687 585 596 285 190 155 157 170 37 1 0 0 0 0 0 0 0 0 0 0 0 0 0
2953 3029 3036 2969 2784 2260 2061 1565 1076 797 431 304 488 1022 782 474 531 520 339 187 88 54 239 73 59 17 0 0 0 0 0 0 0 0 0 0 0 0
2613 2861 2785 2974 2909 2390 2110 1985 1634 1071 823 500 252 220 232 218 327 545 354 177 106 73 63 38 19 0 0 0 0 0 0 0 0 0 0 0 0 0
2490 2503 2598 2446 2638 2482 2187 2070 1961 1815 1148 842 444 224 179 159 133 207 274 227 122 94 37 9 0 0 0 0 0 0 0 0 0 0 0 0 0 0
2819 2498 2372 2390 2199 2139 2114 2325 1806 1860 1704 1080 664 357 205 151 95 94 184 226 140 89 6 0 0 0 0 0 0 0 0 0 0 0 0 0 0 0
3242 2979 2243 1935 1973 1985 1896 2073 1802 1897 1763 1167 855 511 272 157 94 189 90 144 98 127 0 0 0 0 0 0 0 0 0 0 0 0 0 0 0 0
2822 2833 2654 2182 1730 1405 1168 698 1783 1838 1636 1145 863 647 227 165 115 132 109 92 82 85 5 8 2 0 0 0 0 0 0 0 0 0 0 0 0 0
2757 2865 2766 2518 2451 2005 1152 753 883 1376 1255 1044 788 315 266 108 92 44 25 74 53 44 6 5 0 0 0 0 0 0 0 0 0 0 0 0 0 0
2217 2644 2764 2639 2162 1473 1049 1019 829 1052 1023 853 420 207 136 51 36 43 22 23 8 7 0 0 0 0 0 0 0 0 0 0 0 0 0 0 0 0
2106 1886 2121 1732 1263 1082 776 717 703 680 693 539 243 104 101 13 49 13 0 5 0 0 0 0 0 0 0 0 0 0 0 0 0 0 0 0 0 0
1394 1202 1071 970 809 645 506 383 348 532 471 307 84 2 10 36 7 1 0 0 0 0 1 2 1 0 0 0 0 0 0 0 0 0 0 0 0 0
162 21 0 6 12 4 1 1 1 1 0 8 6 6 26 6 1 2 0 3 0 0 0 0 0 0 0 0 0 0 0 0 0 0 0 0 0 0
0 0 0 0 0 0 0 0 0 2 1 0 22 77 9 2 0 1 1 0 0 0 0 0 0 0 0 0 0 0 0 0 0 0 0 0 0 0
0 0 0 0 0 0 0 0 12 4 0 32 51 83 50 19 21 17 15 0 0 0 0 0 0 0 0 0 0 0 0 0 0 0 0 0 0 0

GFSNE_con_mlcape_048.txt.gz
CAPE
386 576 102 8 75 19 0 0 0 0 0 37 17 1 1 0 0 0 0 0 0 0 0 0 0 0 0 0 0 0 0 0 0 0 0 0 0 0
1318 884 432 184 54 93 42 0 0 0 0 0 48 23 11 19 2 0 0 0 0 0 0 0 0 0 0 0 0 0 0 0 0 0 0 0 0 0
1609 1483 1100 343 44 75 68 20 0 0 0 0 3 16 20 25 9 17 0 0 0 0 0 0 0 0 0 0 0 0 0 0 0 0 0 0 0 0
1817 1736 1608 1362 832 78 34 80 29 0 0 0 0 68 23 30 22 1 0 0 0 0 0 0 0 0 0 0 0 0 0 0 0 0 0 0 0 0
1804 1769 1739 1679 1431 1013 191 26 63 45 0 0 0 12 48 28 37 7 0 0 0 4 0 0 0 0 0 0 0 0 0 0 0 0 0 0 0 0
1613 1681 1675 1682 1636 1452 1032 433 31 78 194 52 4 30 44 61 22 17 13 13 8 20 47 38 2 0 0 0 0 0 0 0 0 0 0 0 0 0
1573 1677 1765 1720 1767 1650 1507 1221 610 289 35 260 138 23 51 54 49 7 0 3 29 8 17 12 2 2 0 0 0 0 0 0 0 0 0 0 0 0
1714 1521 1543 1709 1654 1653 1577 1604 1261 1038 542 55 196 228 93 54 97 80 34 6 34 39 33 36 0 5 5 11 0 7 0 0 0 0 0 0 0 0
2013 1922 1806 1753 1790 1723 1349 1354 1509 1268 1100 492 172 69 101 102 24 47 61 38 38 36 51 69 2 14 2 28 42 29 6 0 0 0 0 0 0 0
2327 2305 2260 2210 2012 1935 1930 1614 1392 1407 1154 790 382 249 51 45 33 31 15 31 19 15 33 43 10 43 29 25 10 0 0 0 0 0 0 0 0 0
2476 2430 2529 2548 2470 2091 2167 2139 1971 1643 1284 1141 1066 770 289 44 35 32 51 29 16 14 0 8 15 19 9 1 0 0 0 0 0 0 0 0 0 0
2674 2733 2500 2583 2586 2319 2333 2356 2353 2229 1880 1605 940 725 599 353 97 69 76 36 19 10 20 29 32 17 7 0 0 0 0 0 0 0 0 0 0 0
2728 2689 2741 2547 2337 2339 2312 2656 2619 2520 2304 1960 1659 1187 733 621 280 124 167 56 3 1 53 0 0 0 0 0 0 0 0 0 0 0 0 0 0 0
3093 3013 2920 2652 2294 2143 1990 2284 2466 2341 2518 2510 2076 1659 1218 614 390 294 212 119 4 6 0 28 3 0 0 0 0 0 0 0 0 0 0 0 0 0
3375 3364 3203 3011 2693 2275 1967 1986 1855 1913 2197 2452 2497 2379 1444 1203 580 191 213 239 119 26 1 2 0 0 0 0 0 0 0 0 0 0 0 0 0 0
2757 3209 3243 3077 2882 2863 2403 1877 1424 1348 1669 1935 2057 2241 2263 1479 800 155 81 135 101 55 0 0 0 0 0 0 0 0 0 0 0 0 0 0 0 0
2700 2451 2772 2918 3053 3039 2898 2271 1759 1520 1468 1362 1531 1667 1648 1581 1199 304 28 19 55 43 2 2 1 0 0 0 0 0 0 0 0 0 0 0 0 0
1964 2409 2551 2369 2392 2422 2522 2567 2068 1786 1547 1202 1056 966 1046 1209 1168 855 96 3 2 17 3 2 1 2 2 0 0 0 0 0 0 0 0 0 0 0
1587 1573 1622 1569 1645 1789 2001 2217 2287 1866 1206 598 665 661 511 630 572 562 500 55 31 42 10 2 2 0 0 0 0 0 0 0 0 0 0 0 0 0
358 471 480 435 589 713 668 549 442 294 214 146 22 0 0 0 0 0 0 0 0 0 0 0 1 1 0 0 0 0 0 0 0 0 0 0 0 0
0 0 0 0 0 0 0 0 0 0 0 1 0 0 0 0 0 0 0 0 0 1 1 2 2 0 0 0 0 0 0 0 0 0 0 0 0 0
0 0 0 0 0 0 0 0 0 0 0 0 0 0 0 0 0 0 0 0 0 1 0 0 0 0 0 0 0 0 0 0 0 0 0 0 0 0
0 0 0 0 0 0 0 0 0 0 0 0 0 0 0 1 0 0 0 0 0 0 0 0 0 0 0 0 0 0 0 0 0 0 0 0 0 0